{"data":{"norad_id":66811,"intl_designator":"2025-278W","name":"STARLINK-36045","alt_names":[],"object_type":"PAYLOAD","status":"ACTIVE","operator":null,"country":"US","launch_date":"2025-12-01","launch_site_code":"AFETR","launch_vehicle":null,"mission":null,"orbit_class":"UNKNOWN","rcs_meters":null,"size_class":null,"mass_kg":null,"dimensions":null,"purposes":["comms"],"wikipedia_slug":null,"has_3d_model":false,"image_url":null,"decayed_at":null,"tle_current":{"epoch":"2026-09-19T22:06:39.367872Z","epoch_age_seconds":136562,"freshness":"FRESH","line1":"1 66811U 25278W   26262.92128898  .00014182  00000+0  52363-3 0  9998","line2":"2 66811  43.0021  97.5071 0001424 270.7297  89.3392 15.27596025 44912","mean_motion":15.27596025,"eccentricity":0.0001424,"inclination_deg":43.0021,"raan_deg":97.5071,"arg_perigee_deg":270.7297,"mean_anomaly_deg":89.3392,"bstar":0.00052363,"rev_number":4491,"period_min":94.265759823511,"perigee_km":482.02408577704,"apogee_km":483.9781379113,"semimajor_km":6861.1381118442,"source":"CELESTRAK","updated_at":"2026-09-21T09:00:36.017513Z"}}}